TimeEST,TemperatureF,Dew PointF,Humidity,Sea Level PressureIn,VisibilityMPH,Wind Direction,Wind SpeedMPH,Gust SpeedMPH,PrecipitationIn,Events,Conditions,WindDirDegrees,DateUTC
12:51 AM,39.0,21.0,49,29.93,10.0,ENE,8.1,-,N/A,,Mostly Cloudy,70,2013-02-26 05:51:00
1:51 AM,39.0,21.9,50,29.88,10.0,ENE,8.1,-,N/A,,Clear,60,2013-02-26 06:51:00
2:51 AM,39.0,23.0,53,29.84,10.0,ENE,9.2,-,N/A,,Overcast,70,2013-02-26 07:51:00
3:51 AM,39.9,24.1,53,29.82,10.0,East,6.9,-,N/A,,Overcast,80,2013-02-26 08:51:00
4:51 AM,39.9,25.0,55,29.76,10.0,ENE,8.1,-,N/A,,Mostly Cloudy,60,2013-02-26 09:51:00
5:51 AM,39.9,30.0,68,29.74,9.0,East,8.1,-,0.01,Rain,Light Rain,80,2013-02-26 10:51:00
6:51 AM,39.9,30.9,70,29.71,10.0,ENE,6.9,-,0.00,,Scattered Clouds,70,2013-02-26 11:51:00
7:51 AM,42.1,33.1,70,29.72,10.0,East,5.8,-,N/A,,Overcast,80,2013-02-26 12:51:00
8:51 AM,39.9,36.0,86,29.69,5.0,ENE,9.2,-,0.04,Rain,Rain,70,2013-02-26 13:51:00
9:51 AM,42.1,37.9,85,29.63,10.0,East,10.4,-,0.09,Rain,Light Rain,80,2013-02-26 14:51:00
10:32 AM,44.6,39.2,81,29.58,2.0,ESE,11.5,18.4,0.03,Rain,Rain,110,2013-02-26 15:32:00
10:49 AM,46.4,41.0,81,29.56,9.0,East,16.1,24.2,0.05,Rain,Light Rain,100,2013-02-26 15:49:00
10:51 AM,46.0,41.0,83,29.57,10.0,ESE,15.0,24.2,0.05,Rain,Light Rain,110,2013-02-26 15:51:00
11:51 AM,48.0,41.0,77,29.55,10.0,SE,10.4,24.2,0.02,,Overcast,140,2013-02-26 16:51:00
12:28 PM,48.2,42.8,82,29.57,1.8,SE,5.8,-,0.02,Rain,Heavy Rain,140,2013-02-26 17:28:00
12:33 PM,48.2,42.8,82,29.57,10.0,SE,5.8,-,0.06,Rain,Light Rain,140,2013-02-26 17:33:00
12:51 PM,48.9,43.0,80,29.57,7.0,ESE,5.8,-,0.06,,Overcast,110,2013-02-26 17:51:00
1:51 PM,53.1,42.1,66,29.49,10.0,SE,13.8,27.6,N/A,,Overcast,130,2013-02-26 18:51:00
2:51 PM,51.1,43.0,74,29.47,10.0,ESE,8.1,-,0.03,,Overcast,120,2013-02-26 19:51:00
3:51 PM,53.1,43.0,69,29.44,10.0,SE,12.7,27.6,N/A,,Overcast,140,2013-02-26 20:51:00
4:51 PM,52.0,42.1,69,29.44,10.0,Variable,6.9,-,N/A,,Overcast,0,2013-02-26 21:51:00
5:51 PM,52.0,39.9,63,29.46,10.0,Calm,Calm,-,N/A,,Overcast,0,2013-02-26 22:51:00
6:51 PM,48.0,43.0,83,29.51,4.0,South,5.8,-,0.11,Rain,Rain,190,2013-02-26 23:51:00
7:43 PM,46.4,44.6,93,29.51,10.0,SE,3.5,-,0.11,,Overcast,140,2013-02-27 00:43:00
7:51 PM,46.9,44.1,90,29.52,10.0,Calm,Calm,-,0.11,,Overcast,0,2013-02-27 00:51:00
8:15 PM,46.4,44.6,93,29.54,2.5,West,9.2,-,0.00,Rain,Heavy Rain,280,2013-02-27 01:15:00
8:51 PM,46.9,42.1,83,29.55,10.0,WSW,11.5,21.9,0.14,Rain,Light Rain,240,2013-02-27 01:51:00
9:51 PM,46.0,39.9,79,29.57,10.0,SW,8.1,-,0.00,,Overcast,230,2013-02-27 02:51:00
10:51 PM,46.0,37.9,73,29.57,10.0,SW,9.2,-,0.00,,Overcast,230,2013-02-27 03:51:00
11:51 PM,44.1,37.0,76,29.57,10.0,SSW,3.5,-,N/A,,Overcast,210,2013-02-27 04:51:00